Starlink 30210

operational
NORAD ID: 57292 Int'l Des: 2023-096 Owner: SPXS Country: US Constellation: starlink
LEOCIRCULAR

关于 Starlink 30210

正在加载描述...

实时位置

正在加载3D地球...

即将过境

高度历史

Altitude vs Time

uPlot chart will show altitude changes over time

两行轨道根数

1 57292U 23096C 25259.47877577 .00063066 00000-0 28750-2 0 9995
2 57292 42.9949 76.0195 0020933 273.4010 86.4444 15.19622074121456
Epoch: Sep 16, 2025 • Age: 48 hours

当前状态

高度 508.3 km
速度 7.61 km/s
星下点 -9.08°S, 82.08°E
发射日期 Jul 10, 2023
运行时间 2.1 years
类型 internet

技术详情

分类 Payload
质量 730.00 kg
干质量 700.00 kg
总质量 730.00 kg
长度 0.30 m
直径 4.10 m
跨度 29.00 m
形状 Box + pan
制造商 SPXS
平台类型 Starlink V2M
阶段状态 In Orbit
所有者/国家 SPXS/US

大型星座

Loading constellations...